Weather History for KTVL - January, 2013

Change the Weather History Date:

Tuesday, January 15, 2013

  Actual Average Record
Temperature  
Mean Temperature 26 °F 30 °F  
Max Temperature 47 °F 43 °F 58 °F (1996)
Min Temperature 5 °F 16 °F -7 °F (1997)
Degree Days  
Heating Degree Days 39 35  
Month to date heating degree days 657 532  
Since 1 July heating degree days 3519 3715  
Cooling Degree Days 0 0  
Month to date cooling degree days 0 0  
Year to date cooling degree days 0 0  
Moisture  
Dew Point 13 °F    
Average Humidity 58    
Maximum Humidity 88    
Minimum Humidity 28    
Precipitation  
Precipitation 0.00 in - 3.79 in (1952)
Month to date precipitation 0.36  
Year to date precipitation 0.36  
Sea Level Pressure  
Sea Level Pressure 30.53 in    
Wind  
Wind Speed 3 mph (SSW)    
Max Wind Speed 16 mph    
Max Gust Speed 21 mph    
Visibility 8 miles    
Events      
T = Trace of Precipitation, MM = Missing Value Source: NWS Daily Summary

Daily Weather History Graph

Daily Weather History Graph

Search for Another Location

Airport or City:

Trip Planner

Search our weather history database for the weather conditions in past years. The results will help you decide how hot, cold, wet, or windy it might be!

Date:

Astronomy

Jan. 15, 2013 Rise Set
Actual Time 7:16 AM PST 5:02 PM PST
Civil Twilight 6:47 AM PST 5:31 PM PST
Nautical Twilight 6:14 AM PST 6:04 PM PST
Astronomical Twilight 5:43 AM PST 6:36 PM PST
Moon 9:28 AM PST (1/15) 9:54 PM PST (1/15)
Length of Visible Light 10h 43m
Length of Day
9h 45m
Waxing Crescent, 20% of the Moon is Illuminated
Jan 15
Waxing Crescent
Jan 18
First Quarter
Jan 26
Full
Feb 3
Last Quarter
Feb 9
New

Hourly Weather History & Observations

Time (PST) Temp. Windchill Dew Point Humidity Pressure Visibility Wind Dir Wind Speed Gust Speed Precip Events Conditions
12:53 AM 14.0 °F 8.2 °F 10.0 °F 84% 30.42 in 9.0 mi SSW 3.5 mph - N/A   Clear
1:53 AM 15.1 °F 9.4 °F 10.0 °F 80% 30.46 in 10.0 mi South 3.5 mph - N/A   Clear
2:53 AM 12.0 °F - 8.1 °F 84% 30.46 in 9.0 mi Calm Calm - N/A   Clear
3:53 AM 12.0 °F 5.9 °F 7.0 °F 80% 30.49 in 10.0 mi Variable 3.5 mph - N/A   Clear
4:53 AM 9.0 °F 0.6 °F 3.9 °F 80% 30.53 in 10.0 mi SSW 4.6 mph - N/A   Clear
5:53 AM 8.1 °F - 3.0 °F 80% 30.55 in 10.0 mi Calm Calm - N/A   Clear
6:53 AM 9.0 °F 2.4 °F 3.9 °F 80% 30.57 in 10.0 mi Variable 3.5 mph - N/A   Clear
7:53 AM 9.0 °F - 3.9 °F 80% 30.62 in 10.0 mi Calm Calm - N/A   Clear
8:13 AM 10.4 °F 4.0 °F 5.0 °F 79% 30.45 in 1.5 mi SSW 3.5 mph - N/A   Haze
8:17 AM 10.4 °F - 6.8 °F 85% 30.46 in 0.8 mi Calm Calm - N/A   Mist
8:27 AM 12.2 °F - 8.6 °F 85% 30.46 in 1.2 mi Calm Calm - N/A   Partly Cloudy
8:31 AM 12.2 °F 6.1 °F 8.6 °F 85% 30.47 in 5.0 mi South 3.5 mph - N/A   Partly Cloudy
8:53 AM 15.1 °F 9.4 °F 10.0 °F 80% 30.60 in 10.0 mi South 3.5 mph - N/A   Clear
9:14 AM 19.4 °F 12.8 °F 14.0 °F 80% 30.47 in 1.5 mi South 4.6 mph - N/A   Haze
9:24 AM 19.4 °F 12.8 °F 15.8 °F 86% 30.48 in 4.0 mi South 4.6 mph - N/A   Haze
9:31 AM 19.4 °F 12.8 °F 15.8 °F 86% 30.48 in 10.0 mi South 4.6 mph - N/A   Clear
9:53 AM 25.0 °F - 19.0 °F 78% 30.58 in 10.0 mi Calm Calm - N/A   Clear
10:53 AM 35.1 °F - 21.9 °F 59% 30.54 in 10.0 mi Calm Calm - N/A   Clear
11:53 AM 46.9 °F - 15.1 °F 28% 30.47 in 10.0 mi North 9.2 mph 16.1 mph N/A   Clear
12:53 PM 46.9 °F - 15.1 °F 28% 30.48 in 10.0 mi North 11.5 mph 17.3 mph N/A   Clear
1:53 PM 45.0 °F 38.9 °F 15.1 °F 30% 30.49 in 10.0 mi North 12.7 mph - N/A   Clear
2:53 PM 45.0 °F 43.5 °F 17.1 °F 33% 30.51 in 10.0 mi North 3.5 mph - N/A   Clear
3:53 PM 43.0 °F - 19.0 °F 38% 30.54 in 10.0 mi Calm Calm - N/A   Clear
4:53 PM 37.0 °F - 21.0 °F 52% 30.59 in 10.0 mi Calm Calm - N/A   Clear
5:53 PM 32.0 °F 27.5 °F 19.0 °F 59% 30.62 in 10.0 mi SSW 4.6 mph - N/A   Clear
6:53 PM 30.0 °F 26.5 °F 18.0 °F 61% 30.63 in 10.0 mi Variable 3.5 mph - N/A   Clear
7:53 PM 27.0 °F 23.0 °F 17.1 °F 66% 30.66 in 10.0 mi Variable 3.5 mph - N/A   Clear
8:53 PM 28.9 °F 25.2 °F 17.1 °F 61% 30.62 in 10.0 mi Variable 3.5 mph - N/A   Clear
9:53 PM 28.0 °F - 16.0 °F 61% 30.58 in 10.0 mi Calm Calm - N/A   Clear
10:53 PM 26.1 °F 21.9 °F 16.0 °F 66% 30.56 in 10.0 mi Variable 3.5 mph - N/A   Clear
11:53 PM 23.0 °F - 14.0 °F 68% 30.55 in 10.0 mi Calm Calm - N/A   Clear